Terminal Aerodrome Forecast
Issued by NWS Sterling, VA

Current Version | Previous Version | Graphics & Text | Print | Product List | Glossary On
Versions: 1 2 3 4 5 6 7 8 9 10 11 12 13 14 15 16 17 18 19 20 21 22 23 24 25 26
000
FTUS41 KLWX 182100 AAA
TAFIAD
TAF AMD
KIAD 182109Z 1821/1924 30011G21KT P6SM BKN060
     FM190200 30010KT P6SM BKN050
     FM191400 31013G25KT P6SM SCT250=

USA.gov is the U.S. government's official web portal to all federal, state and local government web resources and services.